Location: Boncourt
(49.6160°N, 3.9448°E)
Time: 18:12:14
(UTC+00:00)

Lacrosse 5 - Pass Details

Date: 09 February 2023
Orbit: 714 x 724 km, 57.0° (Epoch: 09 March)

Event Time Altitude Azimuth Distance (km) Brightness Sun altitude
Rises 20:00:17 0° 291° (WNW) 3,143 6.3 -30.6°
Reaches altitude 10° 20:02:51 10° 300° (WNW) 2,221 5.2 -31.0°
Enters shadow 20:06:18 32° 335° (NNW) 1,231 3.3 -31.6°
